This is the latest recevied weather packets stored in our database for station/object KB3FKJ. If no packets are shown the sender has not sent any weather packets the latest 10 day(s).
| Time | Temp. | Humidity | Pressure | Rain* | Wind** | Luminosity | Snow |
|---|---|---|---|---|---|---|---|
| 1778147101 | 3.89° C | 75% | 1011.7 hPa | 0 mm | - | 0 W/m² | - |
| 1778146799 | 4.44° C | 74% | 1011.8 hPa | 0 mm | - | 0 W/m² | - |
| 1778146496 | 4.44° C | 74% | 1011.7 hPa | 0 mm | - | 0 W/m² | - |
| 1778146194 | 4.44° C | 74% | 1011.7 hPa | 0 mm | - | 0 W/m² | - |
| 1778145891 | 4.44° C | 74% | 1011.5 hPa | 0 mm | - | 0 W/m² | - |
| 1778145587 | 3.89° C | 75% | 1011.7 hPa | 0 mm | - | 0 W/m² | - |
| 1778145284 | 3.89° C | 77% | 1011.7 hPa | 0 mm | - | 0 W/m² | - |
| 1778144980 | 3.89° C | 77% | 1011.7 hPa | 0 mm | - | 0 W/m² | - |
| 1778144670 | 3.89° C | 77% | 1011.7 hPa | 0 mm | - | 0 W/m² | - |
| 1778144367 | 4.44° C | 76% | 1011.7 hPa | 0 mm | - | 0 W/m² | - |
| 1778144064 | 4.44° C | 75% | 1011.7 hPa | 0 mm | - | 0 W/m² | - |
| 1778143762 | 5° C | 74% | 1011.7 hPa | 0 mm | - | 0 W/m² | - |
| 1778143459 | 5° C | 72% | 1011.7 hPa | 0 mm | - | 0 W/m² | - |
| 1778143155 | 5° C | 72% | 1011.6 hPa | 0 mm | - | 0 W/m² | - |
| 1778142851 | 5° C | 72% | 1011.7 hPa | 0 mm | - | 0 W/m² | - |
| 1778142547 | 5° C | 71% | 1011.6 hPa | 0 mm | - | 0 W/m² | - |
| 1778142243 | 5.56° C | 71% | 1011.7 hPa | 0 mm | - | 0 W/m² | - |
| 1778141941 | 5.56° C | 70% | 1011.7 hPa | 0 mm | - | 0 W/m² | - |
| 1778141636 | 6.11° C | 69% | 1012 hPa | 0 mm | - | 0 W/m² | - |
| 1778141333 | 6.11° C | 68% | 1011.9 hPa | 0 mm | - | 0 W/m² | - |
| 1778141029 | 6.67° C | 66% | 1011.8 hPa | 0 mm | - | 0 W/m² | - |
| 1778140725 | 6.67° C | 65% | 1011.9 hPa | 0 mm | - | 0 W/m² | - |
| 1778140421 | 6.67° C | 65% | 1011.8 hPa | 0 mm | - | 0 W/m² | - |
| 1778140118 | 7.22° C | 64% | 1011.8 hPa | 0 mm | - | 0 W/m² | - |
| 1778139815 | 7.22° C | 63% | 1011.9 hPa | 0 mm | - | 0 W/m² | - |
* Rain latest hour (hover to see other rain measurements)
** Current wind speed in m/s (hover to see current wind gust speed)